Flag for U.S.A. Weather past 2 weeks in Memphis, Tennessee, U.S.A.

Now
41 °F

Mostly cloudy.


Feels Like: 36 °F
Forecast: 42 / 64 °F
Wind: 7 mph from Northeast

Location: Memphis International Airport

Current Time: Mar 2, 2015 at 6:47:53 PM

Latest Report: Mar 2, 2015 at 5:54 PM


Visibility: 10 mi

Pressure: 30.32 "Hg

Humidity: 82%

Dew point: 36 °F

Location of MemphisLocation

Historic Weather in Memphis — Graph

°F

Memphis temperature yesterday

Maximum temperature yesterday: 47 °F (at 2:54 PM)
Minimum temperature yesterday: 36 °F (at 7:54 AM)
Average temperature yesterday: 40 °F

Past Weeks' High & Low Weather Summary

 TemperatureHumidityPressure
High58 °F (Feb 21, 7:54 AM)100% (Feb 26, 7:00 AM)30.61 "Hg (Feb 26, 7:00 AM)
Low14 °F (Feb 19, 5:54 AM)24% (Feb 15, 9:54 PM)29.78 "Hg (Feb 21, 8:54 AM)
Average31 °F69%30.25 "Hg
* Reported Feb 15 5:54 PM — Mar 2 5:54 PM, Memphis, Weather by CustomWeather, © 2015

Note: Actual official high and low records may vary slightly from our data, if they occured in-between our weather recording intervals... More about our weather records

Advertising

Memphis weather history for previous 24 hours

 ConditionsComfort  
Time TempWeatherWind HumidityBarometerVisibility
5:54 PM
Mon, Mar 2
41 °FMostly cloudy.7 mph82%30.32 "Hg10 mi
4:54 PM41 °FOvercast.7 mph80%30.33 "Hg10 mi
3:54 PM42 °FMostly cloudy.6 mph73%30.34 "Hg10 mi
2:54 PM42 °FMostly cloudy.No wind76%30.35 "Hg8 mi
1:54 PM42 °FOvercast.7 mph68%30.36 "Hg10 mi
12:54 PM42 °FOvercast.6 mph62%30.40 "Hg10 mi
11:54 AM41 °FOvercast.8 mph65%30.41 "Hg10 mi
10:54 AM39 °FOvercast.10 mph67%30.44 "Hg10 mi
9:54 AM37 °FOvercast.13 mph70%30.45 "Hg10 mi
8:54 AM36 °FOvercast.15 mph70%30.46 "Hg10 mi
7:54 AM35 °FOvercast.16 mph72%30.45 "Hg10 mi
6:54 AM34 °FOvercast.17 mph79%30.46 "Hg10 mi
5:54 AM34 °FMostly cloudy.13 mph82%30.44 "Hg10 mi
4:54 AM35 °FOvercast.12 mph82%30.43 "Hg10 mi
3:54 AM35 °FMostly cloudy.16 mph82%30.41 "Hg10 mi
2:54 AM36 °FLow clouds.15 mph82%30.42 "Hg10 mi
1:54 AM37 °FLow clouds.12 mph89%30.42 "Hg8 mi
12:54 AM38 °FLow clouds.10 mph90%30.40 "Hg8 mi
11:54 PM
Sun, Mar 1
38 °FLow clouds.10 mph90%30.39 "Hg8 mi
10:54 PM38 °FLow clouds.10 mph90%30.39 "Hg7 mi
9:54 PM38 °FLight rain. Fog.6 mph93%30.40 "Hg2 mi
8:54 PM39 °FLight rain. Fog.8 mph89%30.38 "Hg2 mi
7:54 PM39 °FLight rain. Fog.10 mph93%30.36 "Hg1 mi
6:54 PM42 °FLight rain. Fog.7 mph92%30.34 "Hg1 mi
Weather by CustomWeather, © 2015

See weather overviewHow to use our weather pages